This is the latest recevied weather packets stored in our database for station/object KC0CAU. If no packets are shown the sender has not sent any weather packets the latest 10 day(s).
| Time | Temp. | Humidity | Pressure | Rain* | Wind** | Luminosity | Snow |
|---|---|---|---|---|---|---|---|
| 1778187624 | 16.67° C | 23% | 1011.6 hPa | 0 mm | - | - | - |
| 1778186723 | 16.11° C | 27% | 1011.8 hPa | 0 mm | - | - | - |
| 1778185821 | 16.67° C | 25% | 1012.1 hPa | 0 mm | - | - | - |
| 1778184919 | 15.56° C | 26% | 1012.1 hPa | 0 mm | - | - | - |
| 1778184017 | 16.11° C | 26% | 1012.3 hPa | 0 mm | - | - | - |
| 1778183114 | 15.56° C | 26% | 1012.4 hPa | 0 mm | - | - | - |
| 1778182215 | 15° C | 27% | 1012.5 hPa | 0 mm | - | - | - |
| 1778181312 | 15° C | 27% | 1012.5 hPa | 0 mm | - | - | - |
| 1778180409 | 15° C | 29% | 1012.5 hPa | 0 mm | - | - | - |
| 1778179507 | 14.44° C | 28% | 1012.5 hPa | 0 mm | - | - | - |
| 1778178605 | 15° C | 29% | 1012.8 hPa | 0 mm | - | - | - |
| 1778177702 | 13.89° C | 31% | 1013 hPa | 0 mm | - | - | - |
| 1778176859 | 13.89° C | 33% | 1013.2 hPa | 0 mm | - | - | - |
| 1778175962 | 13.33° C | 37% | 1013.4 hPa | 0 mm | - | - | - |
| 1778175087 | 13.33° C | 37% | 1013.5 hPa | 0 mm | - | - | - |
| 1778174167 | 12.78° C | 35% | 1014 hPa | 0 mm | - | - | - |
| 1778173268 | 12.78° C | 37% | 1014 hPa | 0 mm | - | - | - |
| 1778172354 | 11.67° C | 40% | 1014.2 hPa | 0 mm | - | - | - |
| 1778171447 | 11.11° C | 42% | 1014.5 hPa | 0 mm | - | - | - |
| 1778170556 | 10.56° C | 45% | 1014.5 hPa | 0 mm | - | - | - |
| 1778169641 | 10° C | 45% | 1014.8 hPa | 0 mm | - | - | - |
| 1778168738 | 9.44° C | 47% | 1014.9 hPa | 0 mm | - | - | - |
| 1778167833 | 8.89° C | 50% | 1015 hPa | 0 mm | - | - | - |
| 1778166928 | 7.78° C | 52% | 1015 hPa | 0 mm | - | - | - |
| 1778166025 | 7.22° C | 56% | 1015.1 hPa | 0 mm | - | - | - |
* Rain latest hour (hover to see other rain measurements)
** Current wind speed in m/s (hover to see current wind gust speed)